Location: Newark
(45.4422°N, 16.2769°E)
Time: 17:01:09
(UTC+00:00)

Tiros 1 despin weight - Pass Details

Date: 17 December 2019
Orbit: 593 x 643 km, 48.2° (Epoch: 20 January)

Event Time Altitude Azimuth Distance (km) Brightness Sun altitude
Rises 00:01:30 0° 192° (SSW) 2,911 - -63.6°
Reaches altitude 10° 00:04:44 10° 169° (SSE) 1,998 - -63.3°
Maximum altitude 00:07:15 15° 135° (SE) 1,705 - -63.0°
Drops below altitude 10° 00:09:46 10° 102° (ESE) 1,988 - -62.7°
Sets 00:12:58 0° 78° (ENE) 2,887 - -62.3°
